Laurent Verva

Laurent Verva

Statistiques 2026

  • Courses courues : 42
  • Nb de victoires : -
  • Nb de places : 1
  • Écart gagnant : 143
  • Réussite à la gagne : -
  • Réussite à la place : 2%
Musique : 0a 8a 4a 6a 6a 0a 5a 5a Da 2a 9a 6a 5a Da 6a 0a 7a 4a
DateRangCatégorieAlloc.Dist.HippodromeChevalRed. KmSpé.
31/03/19 8 Trot 12 000€ 2 750m La Capelle Filae des Salines 1'19"0 Attelé
31/03/19 9 Trot 13 000€ 2 750m La Capelle Epona des Neuzy 1'18"7 Attelé
31/03/19 6 Trot 13 000€ 2 775m La Capelle Easy de Navary 1"16'8 Attelé
01/04/19 7 Trot 15 000€ 2 825m Le Croise Laroche Ethano de Bouteau 1'16"8 Attelé
01/04/19 9 Trot 14 000€ 2 825m Le Croise Laroche Flashback Syga 1'17"2 Attelé
04/04/19 5 Trot 18 000€ 2 850m Mauquenchy Esther du Ganep 1'16"5 Attelé
04/04/19 8 Trot 18 000€ 2 850m Mauquenchy Elliot d'Alci 1'17"9 Attelé
07/04/19 D Trot 24 000€ 2 750m La Capelle Divine de Navary Attelé
07/04/19 0 Trot 17 000€ 2 700m La Capelle Daisy de la Folie Attelé
08/04/19 5 Trot 15 000€ 2 700m Le Croise Laroche Elisee du Pont 1'15"5 Attelé
08/04/19 7 Trot 15 000€ 2 700m Le Croise Laroche Ethano de Bouteau 1'16"4 Attelé
13/04/19 1 Trot 24 000€ 2 700m Le Croise Laroche Bellagio Monoi 1'13"0 Attelé
13/04/19 4 Trot 18 000€ 2 825m Le Croise Laroche Dulcinee d'Arbaz 1'16"3 Attelé
13/04/19 D Trot 16 000€ 2 700m Le Croise Laroche Flashback Syga Attelé
13/04/19 5 Trot 18 000€ 2 700m Le Croise Laroche Flamme Mencourt 1'16"4 Attelé
14/04/19 6 Trot 13 000€ 2 175m Saint Omer Gnaque 1'21"9 Attelé
14/04/19 1 Trot 20 000€ 2 650m Saint Omer Amio Josselyn 1'16"8 Attelé
14/04/19 4 Trot 13 000€ 2 625m Saint Omer Falco d'Alci 1'18"9 Attelé
14/04/19 0 Trot 16 000€ 2 625m Saint Omer Coquin du Driehoek Attelé
27/04/19 0 Trot 13 000€ 2 400m Amiens Falco d'Alci Attelé
27/04/19 8 Trot 17 000€ 2 400m Amiens Dario de la Besvre 1'16"0 Attelé
27/04/19 5 Trot 20 000€ 2 400m Amiens Au Temps Dubonheur 1'14"3 Attelé
27/04/19 6 Trot 17 000€ 2 900m Amiens Emile de Jal 1'18"2 Attelé
28/04/19 6 Trot 13 000€ 2 550m Reims Expert Majyc 1'16"8 Attelé
28/04/19 2 Trot 13 000€ 2 550m Reims Ebba Lotta 1'16"7 Attelé
28/04/19 9 Trot 15 000€ 2 575m Reims Daisy de la Folie 1'16"6 Attelé
28/04/19 3 Trot 14 000€ 2 550m Reims Farca Sly 1'17"3 Attelé
29/04/19 1 Trot 15 000€ 2 700m Le Croise Laroche Faucon de Fael 1'14"1 Attelé
29/04/19 0 Trot 21 000€ 2 825m Le Croise Laroche Bilingue d'Alci Attelé
29/04/19 6 Trot 14 000€ 2 700m Le Croise Laroche Golencia de Warnoc 1'18"2 Attelé
01/05/19 7 Trot 12 000€ 2 650m Laon Frimousse de Marny 1'20"9 Attelé
01/05/19 D Trot 20 000€ 2 850m Laon Aslak Attelé
01/05/19 D Trot 12 000€ 2 650m Laon Fakir Kuky Attelé
04/05/19 6 Trot 16 000€ 2 700m La Capelle Fayette Dream 1'18"5 Attelé
04/05/19 D Trot 16 000€ 2 700m La Capelle Friday Attelé
04/05/19 2 Trot 18 000€ 2 775m La Capelle Do Kiss Me 1'16"8 Attelé
04/05/19 3 Trot 18 000€ 2 775m La Capelle Daisy de la Folie 1'16"0 Attelé
04/05/19 D Trot 25 000€ 2 700m La Capelle Blumberg Delo Attelé
06/05/19 3 Trot 14 000€ 2 825m Le Croise Laroche Feu des Pres 1'16"4 Attelé
11/05/19 6 Trot 15 000€ 2 575m Reims Destrier d'Isques 1'15"1 Attelé
11/05/19 2 Trot 13 000€ 2 550m Reims Erromanga 1'17"1 Attelé
11/05/19 5 Trot 19 000€ 2 575m Reims Defi Calendes 1'14"6 Attelé
11/05/19 8 Trot 14 000€ 2 550m Reims Fraggle Rock 1'18"5 Attelé
11/05/19 9 Trot 15 000€ 2 550m Reims Emile de Jal 1'16"7 Attelé
12/05/19 9 Trot 15 000€ 2 725m Lisieux Elokai 1'17"1 Attelé
12/05/19 D Trot 13 000€ 2 750m Lisieux Falco d'Alci Attelé
13/05/19 5 Trot 14 000€ 2 700m Le Croise Laroche Flashback Syga 1'16"2 Attelé
18/05/19 D Trot 13 000€ 2 400m Amiens Frivole d'Arbaz Attelé
20/05/19 D Trot 15 000€ 2 825m Le Croise Laroche Flamme Mencourt Attelé
20/05/19 5 Trot 21 000€ 2 700m Le Croise Laroche Au Temps Dubonheur 1'13"2 Attelé